Location: ?????
(55.6500°N, 37.2500°E)
Time: 07:37:40
(UTC+00:00)

Landsat 5 - Pass Details

Date: 19 May 2025
Orbit: 510 x 610 km, 98.1° (Epoch: 23 June)

Event Time Altitude Azimuth Distance (km) Brightness Sun altitude
Rises 20:15:53 0° 19° (NNE) 2,805 7.9 -12.9°
Reaches altitude 10° 20:18:06 10° 26° (NNE) 1,916 6.8 -13.0°
Maximum altitude 20:22:07 45° 99° (E) 824 4.0 -13.1°
Enters shadow 20:24:36 21° 163° (SSE) 1,359 4.7 -13.2°
